Location: Izdebno
(52.6670°N, 16.2170°E)
Time: 04:39:59
(UTC+02:00)

Transit 4A - Pass Details

Date: 02 March 2024
Orbit: 871 x 972 km, 66.8° (Epoch: 22 April)

Event Time Altitude Azimuth Distance (km) Brightness Sun altitude
Rises 02:16:48 0° 256° (WSW) 3,577 - -37.3°
Reaches altitude 10° 02:19:36 10° 266° (W) 2,619 - -37.0°
Maximum altitude 02:25:04 34° 330° (NNW) 1,465 - -36.5°
Exits shadow 02:26:33 30° 358° (N) 1,573 9.3 -36.3°
Drops below altitude 10° 02:30:26 10° 34° (NE) 2,567 10.9 -35.9°
Sets 02:33:10 0° 44° (NE) 3,497 11.9 -35.6°
